sat.trackr.live / text

‹ back to catalog

STARLINK-32312

NORAD 61711 · 2024-196E

PAYLOAD ACTIVE UNKNOWN

§ Identity

Operator
Country
US
Launch date
2024-10-30
Launch site
AFETR
Launch vehicle
Mass (kg)
RCS (m²)

Purposes: comms

External: N2YO · Heavens-Above · Gunter

§ Orbital elements

Epoch: 2026-09-21T17:12:55.465632Z

Period
93.85 min
Inclination
53.1608°
Eccentricity
0.0001456
Mean motion
15.34388068 rev/d
Perigee alt
461.7 km
Apogee alt
463.7 km
Semi-major
6,840.9 km
B*
8.1151e-6
RAAN
267.6662°
Arg perigee
91.0699°
Mean anomaly
269.0470°
Rev number
10,721

§ Raw data

STARLINK-323121 61711U 24196E   26264.71730863 -.00000102  00000+0  81151-5 0  99972 61711  53.1608 267.6662 0001456  91.0699 269.0470 15.34388068107211

JSON: /api/v1/satellites/61711 · /tle

For live sub-satellite position, see the globe view (requires WebGL).

§ Visibility from observer

Set your observer location to see the next 7 days of passes ≥ 10°. The values pass through the URL so the page stays shareable.

No JS? Fill the form by hand. The geolocation button needs JavaScript.